Location: Blankensee
(53.5126°N, 14.3055°E)
Time: 16:58:03
(UTC+00:00)

CENTAUR R/B - Pass Details

Date: 08 August 2020
Orbit: 754 x 1434 km, 63.5° (Epoch: 17 September)

Event Time Altitude Azimuth Distance (km) Brightness Sun altitude
Rises 01:30:42 0° 284° (WNW) 3,753 5.3 -14.0°
Reaches altitude 10° 01:33:21 10° 292° (WNW) 2,901 4.8 -13.8°
Maximum altitude 01:39:52 39° 1° (N) 1,713 4.3 -13.2°
Drops below altitude 10° 01:47:25 10° 68° (ENE) 3,357 6.3 -12.6°
Sets 01:50:43 0° 76° (ENE) 4,405 6.9 -12.2°
